RYR8924 LIRF-LICT

Flight info

Callsign RYR8924
Flight time 0h 49m
Altitude 32000
Route KONUT L44 TURMO M738 RONAB M740 ADUKA
Aircraft B38M/M-SDE1FGHILORVWXY/HB1

Departure

Time 2026-05-05 16:00
Airport Rome–Fiumicino Leonardo da Vinci International Airport (LIRF)

Arrival

Time 2026-05-05 16:49
Airport Vincenzo Florio Airport Trapani-Birgi (LICT)
Time Latitude Longitude Altitude Speed Heading
2026-05-05 15:19 41.79591 12.26179 16 ft 0 kts 115°
2026-05-05 15:49 41.79600 12.26152 16 ft 4 kts 115°
2026-05-05 15:49 41.79610 12.26123 18 ft 4 kts 103°
2026-05-05 15:49 41.79607 12.26095 19 ft 4 kts 43°
2026-05-05 15:50 41.79588 12.26079 18 ft 1 kts 26°
2026-05-05 15:50 41.79585 12.26076 17 ft 0 kts 26°
2026-05-05 15:53 41.79585 12.26077 16 ft 1 kts 26°
2026-05-05 15:53 41.79600 12.26086 17 ft 5 kts 26°
2026-05-05 15:54 41.79656 12.26123 18 ft 13 kts 25°
2026-05-05 15:54 41.79742 12.26140 16 ft 13 kts 344°
2026-05-05 15:54 41.79816 12.26124 18 ft 9 kts 309°
2026-05-05 15:54 41.79848 12.26042 17 ft 11 kts 296°
2026-05-05 15:55 41.79889 12.25926 18 ft 19 kts 295°
2026-05-05 15:55 41.79958 12.25876 16 ft 12 kts 26°
2026-05-05 15:55 41.80039 12.25926 17 ft 14 kts 24°
2026-05-05 15:55 41.80134 12.25984 18 ft 16 kts 25°
2026-05-05 15:56 41.80243 12.26052 16 ft 18 kts 25°
2026-05-05 15:56 41.80365 12.26128 17 ft 20 kts 24°
2026-05-05 15:56 41.80496 12.26185 19 ft 18 kts 21°
2026-05-05 15:56 41.80550 12.26319 20 ft 18 kts 70°
2026-05-05 15:57 41.80596 12.26483 19 ft 20 kts 70°
2026-05-05 15:57 41.80646 12.26666 18 ft 22 kts 69°
2026-05-05 15:57 41.80702 12.26869 16 ft 24 kts 69°
2026-05-05 15:57 41.80749 12.27020 16 ft 15 kts 49°
2026-05-05 15:58 41.80847 12.27023 16 ft 13 kts 340°
2026-05-05 15:58 41.80875 12.27009 16 ft 0 kts 339°
2026-05-05 15:58 41.80890 12.27002 16 ft 5 kts 339°
2026-05-05 15:59 41.80941 12.26974 15 ft 11 kts 326°
2026-05-05 15:59 41.80947 12.26884 18 ft 3 kts 249°
2026-05-05 15:59 41.80944 12.26874 17 ft 5 kts 249°
2026-05-05 15:59 41.80850 12.26534 19 ft 82 kts 250°
2026-05-05 16:00 41.80557 12.25468 20 ft 158 kts 249°
2026-05-05 16:00 41.80176 12.23913 577 ft 180 kts 250°
2026-05-05 16:00 41.79799 12.22300 1592 ft 182 kts 244°
2026-05-05 16:00 41.79325 12.20659 2266 ft 207 kts 249°
2026-05-05 16:01 41.79084 12.18648 3096 ft 224 kts 265°
2026-05-05 16:01 41.79075 12.16538 4196 ft 229 kts 265°
2026-05-05 16:01 41.78784 12.14503 5426 ft 219 kts 240°
2026-05-05 16:01 41.77769 12.13036 6648 ft 213 kts 218°
2026-05-05 16:02 41.76620 12.11859 7706 ft 211 kts 221°
2026-05-05 16:02 41.75537 12.10579 8796 ft 205 kts 224°
2026-05-05 16:02 41.74467 12.09265 9618 ft 214 kts 224°
2026-05-05 16:02 41.73369 12.07913 10490 ft 214 kts 224°
2026-05-05 16:03 41.72268 12.06551 11272 ft 219 kts 224°
2026-05-05 16:03 41.71096 12.05174 11899 ft 232 kts 217°
2026-05-05 16:03 41.69589 12.04172 12373 ft 255 kts 197°
2026-05-05 16:03 41.67746 12.03973 12827 ft 279 kts 179°
2026-05-05 16:04 41.65745 12.03999 13268 ft 297 kts 185°
2026-05-05 16:04 41.63603 12.03910 13657 ft 318 kts 185°
2026-05-05 16:04 41.61358 12.03824 14082 ft 335 kts 184°
2026-05-05 16:04 41.58999 12.03741 14662 ft 343 kts 184°
2026-05-05 16:05 41.56603 12.03665 15452 ft 347 kts 184°
2026-05-05 16:05 41.54173 12.03589 16177 ft 351 kts 184°
2026-05-05 16:05 41.51725 12.03516 16922 ft 354 kts 184°
2026-05-05 16:05 41.49244 12.03441 17618 ft 358 kts 184°
2026-05-05 16:06 41.46739 12.03366 18266 ft 362 kts 184°
2026-05-05 16:06 41.44202 12.03289 18815 ft 366 kts 184°
2026-05-05 16:06 41.41648 12.03213 19349 ft 369 kts 184°
2026-05-05 16:06 41.39105 12.03137 19866 ft 372 kts 184°
2026-05-05 16:07 41.36499 12.03059 20380 ft 376 kts 184°
2026-05-05 16:07 41.33876 12.02981 20888 ft 379 kts 184°
2026-05-05 16:07 41.31225 12.02902 21387 ft 383 kts 184°
2026-05-05 16:07 41.28551 12.02823 21886 ft 386 kts 184°
2026-05-05 16:08 41.25856 12.02743 22377 ft 389 kts 184°
2026-05-05 16:08 41.23139 12.02662 22864 ft 392 kts 185°
2026-05-05 16:08 41.20396 12.02581 23337 ft 396 kts 185°
2026-05-05 16:08 41.17669 12.02500 23769 ft 399 kts 185°
2026-05-05 16:09 41.14884 12.02416 24180 ft 401 kts 185°
2026-05-05 16:09 41.12088 12.02333 24592 ft 403 kts 185°
2026-05-05 16:09 41.09276 12.02250 25016 ft 405 kts 185°
2026-05-05 16:09 41.06450 12.02167 25415 ft 407 kts 185°
2026-05-05 16:10 41.03611 12.02083 25814 ft 409 kts 186°
2026-05-05 16:10 41.00756 12.01999 26207 ft 411 kts 186°
2026-05-05 16:10 40.97886 12.01915 26598 ft 413 kts 186°
2026-05-05 16:10 40.95003 12.01831 26974 ft 415 kts 186°
2026-05-05 16:11 40.92145 12.01746 27326 ft 417 kts 187°
2026-05-05 16:11 40.83380 12.01490 28427 ft 423 kts 187°
2026-05-05 16:12 40.80428 12.01403 28773 ft 425 kts 187°
2026-05-05 16:12 40.74489 12.01230 29450 ft 429 kts 187°
2026-05-05 16:13 40.65535 12.00970 30394 ft 433 kts 188°
2026-05-05 16:13 40.62516 12.00882 30638 ft 435 kts 188°
2026-05-05 16:13 40.59483 12.00794 30894 ft 437 kts 188°
2026-05-05 16:14 40.53404 12.00620 31542 ft 436 kts 188°
2026-05-05 16:14 40.47338 12.00447 32036 ft 437 kts 188°
2026-05-05 16:15 40.35282 12.00100 32024 ft 434 kts 188°
2026-05-05 16:16 40.23200 11.99754 32023 ft 434 kts 188°
2026-05-05 16:17 40.14153 11.99495 32030 ft 433 kts 188°
2026-05-05 16:18 40.05149 11.99238 32029 ft 433 kts 188°
2026-05-05 16:19 39.96099 11.98980 32033 ft 434 kts 188°
2026-05-05 16:19 39.87092 11.98725 32025 ft 433 kts 188°
2026-05-05 16:20 39.75042 11.98384 32029 ft 433 kts 188°
2026-05-05 16:22 39.60022 11.97960 32020 ft 435 kts 187°
2026-05-05 16:23 39.48201 11.97632 31280 ft 411 kts 188°
2026-05-05 16:23 39.46309 11.97579 30943 ft 410 kts 188°
2026-05-05 16:23 39.40633 11.97419 29909 ft 406 kts 187°
2026-05-05 16:24 39.37818 11.97341 29375 ft 403 kts 187°
2026-05-05 16:24 39.35028 11.97264 28915 ft 399 kts 187°
2026-05-05 16:24 39.29536 11.97111 28013 ft 391 kts 187°
2026-05-05 16:25 39.26825 11.97035 27571 ft 388 kts 187°
2026-05-05 16:25 39.21503 11.96887 26717 ft 382 kts 187°
2026-05-05 16:25 39.18855 11.96813 26297 ft 379 kts 187°
2026-05-05 16:26 39.13614 11.96667 25474 ft 374 kts 187°
2026-05-05 16:26 39.08441 11.96524 24681 ft 370 kts 187°
2026-05-05 16:27 39.05876 11.96452 24290 ft 368 kts 187°
2026-05-05 16:27 39.03322 11.96382 23914 ft 366 kts 187°
2026-05-05 16:27 39.00816 11.96312 23515 ft 364 kts 187°
2026-05-05 16:27 38.98288 11.96242 23075 ft 362 kts 186°
2026-05-05 16:28 38.95777 11.96172 22665 ft 359 kts 187°
2026-05-05 16:28 38.93291 11.96104 22303 ft 356 kts 187°
2026-05-05 16:28 38.90832 11.96036 21945 ft 352 kts 187°
2026-05-05 16:28 38.88391 11.95969 21583 ft 349 kts 187°
2026-05-05 16:29 38.85975 11.95902 21232 ft 346 kts 186°
2026-05-05 16:29 38.83577 11.95836 20877 ft 343 kts 186°
2026-05-05 16:29 38.81197 11.95771 20530 ft 340 kts 186°
2026-05-05 16:29 38.78839 11.95705 20184 ft 338 kts 186°
2026-05-05 16:30 38.76527 11.95642 19841 ft 335 kts 186°
2026-05-05 16:30 38.74202 11.95578 19503 ft 333 kts 186°
2026-05-05 16:30 38.71892 11.95514 19155 ft 331 kts 186°
2026-05-05 16:30 38.69597 11.95451 18822 ft 329 kts 186°
2026-05-05 16:31 38.67315 11.95388 18488 ft 327 kts 186°
2026-05-05 16:31 38.65045 11.95326 18128 ft 325 kts 186°
2026-05-05 16:31 38.62787 11.95264 17762 ft 323 kts 186°
2026-05-05 16:31 38.60550 11.95202 17418 ft 320 kts 186°
2026-05-05 16:32 38.58332 11.95146 17081 ft 318 kts 184°
2026-05-05 16:32 38.56131 11.95631 16662 ft 327 kts 163°
2026-05-05 16:32 38.54125 11.97030 16355 ft 329 kts 152°
2026-05-05 16:32 38.52229 11.98573 16029 ft 327 kts 152°
2026-05-05 16:33 38.50323 12.00151 15687 ft 325 kts 151°
2026-05-05 16:33 38.48437 12.01729 15350 ft 324 kts 151°
2026-05-05 16:33 38.46562 12.03309 15028 ft 322 kts 151°
2026-05-05 16:33 38.44701 12.04885 14700 ft 320 kts 151°
2026-05-05 16:34 38.42851 12.06452 14375 ft 318 kts 151°
2026-05-05 16:34 38.41010 12.08012 14050 ft 317 kts 151°
2026-05-05 16:34 38.39177 12.09564 13694 ft 316 kts 151°
2026-05-05 16:34 38.37350 12.11112 13339 ft 314 kts 151°
2026-05-05 16:35 38.35533 12.12651 12986 ft 313 kts 151°
2026-05-05 16:35 38.33740 12.14172 12607 ft 312 kts 151°
2026-05-05 16:35 38.31926 12.15709 12292 ft 309 kts 151°
2026-05-05 16:35 38.30146 12.17217 11991 ft 306 kts 151°
2026-05-05 16:36 38.28381 12.18711 11678 ft 303 kts 151°
2026-05-05 16:36 38.26654 12.20172 11379 ft 301 kts 151°
2026-05-05 16:36 38.24907 12.21649 11057 ft 303 kts 150°
2026-05-05 16:36 38.23144 12.23139 10748 ft 306 kts 150°
2026-05-05 16:37 38.21367 12.24640 10434 ft 306 kts 150°
2026-05-05 16:37 38.19608 12.26125 10256 ft 300 kts 150°
2026-05-05 16:37 38.17805 12.27645 10117 ft 290 kts 150°
2026-05-05 16:37 38.16162 12.29030 9933 ft 284 kts 150°
2026-05-05 16:38 38.14527 12.30408 9612 ft 282 kts 150°
2026-05-05 16:38 38.12893 12.31785 9285 ft 281 kts 150°
2026-05-05 16:38 38.11270 12.33150 8978 ft 279 kts 150°
2026-05-05 16:38 38.09659 12.34505 8693 ft 277 kts 150°
2026-05-05 16:39 38.08060 12.35849 8399 ft 275 kts 150°
2026-05-05 16:39 38.06471 12.37185 8104 ft 273 kts 150°
2026-05-05 16:39 38.04896 12.38507 7820 ft 271 kts 150°
2026-05-05 16:39 38.03328 12.39824 7526 ft 270 kts 149°
2026-05-05 16:40 38.01757 12.41141 7241 ft 271 kts 149°
2026-05-05 16:40 38.00185 12.42459 6958 ft 271 kts 149°
2026-05-05 16:40 37.98636 12.43757 6659 ft 271 kts 150°
2026-05-05 16:40 37.97066 12.45073 6345 ft 270 kts 149°
2026-05-05 16:41 37.95517 12.46368 6026 ft 263 kts 148°
2026-05-05 16:41 37.94021 12.47620 5732 ft 253 kts 148°
2026-05-05 16:41 37.92589 12.48819 5476 ft 241 kts 148°
2026-05-05 16:41 37.91223 12.49962 5284 ft 231 kts 148°
2026-05-05 16:42 37.89878 12.51088 5059 ft 232 kts 146°
2026-05-05 16:42 37.88615 12.52357 4815 ft 233 kts 141°
2026-05-05 16:42 37.87377 12.53665 4533 ft 230 kts 141°
2026-05-05 16:42 37.86159 12.54941 4372 ft 226 kts 141°
2026-05-05 16:43 37.84961 12.56185 4254 ft 224 kts 142°
2026-05-05 16:43 37.83764 12.57423 4135 ft 219 kts 142°
2026-05-05 16:43 37.82605 12.58619 3986 ft 211 kts 142°
2026-05-05 16:43 37.81486 12.59773 3870 ft 204 kts 141°
2026-05-05 16:44 37.80417 12.60875 3747 ft 193 kts 141°
2026-05-05 16:44 37.79391 12.61930 3607 ft 185 kts 141°
2026-05-05 16:44 37.78425 12.62922 3479 ft 174 kts 141°
2026-05-05 16:44 37.77653 12.64028 3312 ft 168 kts 112°
2026-05-05 16:45 37.77644 12.65479 3183 ft 172 kts 72°
2026-05-05 16:45 37.78445 12.66590 3110 ft 182 kts 31°
2026-05-05 16:45 37.79721 12.66850 3068 ft 194 kts 359°
2026-05-05 16:45 37.81071 12.66655 3098 ft 198 kts 345°
2026-05-05 16:46 37.82231 12.65763 2840 ft 197 kts 310°
2026-05-05 16:46 37.82816 12.64249 2673 ft 191 kts 282°
2026-05-05 16:46 37.83228 12.62641 2452 ft 192 kts 288°
2026-05-05 16:46 37.83768 12.61127 2239 ft 187 kts 295°
2026-05-05 16:47 37.84440 12.59745 2008 ft 180 kts 302°
2026-05-05 16:47 37.85155 12.58519 1800 ft 171 kts 305°
2026-05-05 16:47 37.85881 12.57337 1591 ft 169 kts 306°
2026-05-05 16:47 37.86601 12.56168 1359 ft 168 kts 306°
2026-05-05 16:48 37.87319 12.55001 1124 ft 168 kts 306°
2026-05-05 16:48 37.88042 12.53841 931 ft 167 kts 306°
2026-05-05 16:48 37.88737 12.52707 699 ft 158 kts 307°
2026-05-05 16:48 37.89381 12.51629 466 ft 149 kts 311°
2026-05-05 16:49 37.90009 12.50623 254 ft 141 kts 311°
2026-05-05 16:49 37.90604 12.49668 49 ft 133 kts 311°
2026-05-05 16:49 37.91098 12.48869 29 ft 87 kts 307°
2026-05-05 16:49 37.91354 12.48450 30 ft 49 kts 308°
2026-05-05 16:50 37.91491 12.48235 23 ft 21 kts 319°
2026-05-05 16:50 37.91518 12.48183 23 ft 3 kts 204°
2026-05-05 16:50 37.91494 12.48214 23 ft 10 kts 123°
2026-05-05 16:50 37.91429 12.48324 27 ft 19 kts 128°
2026-05-05 16:51 37.91334 12.48476 30 ft 26 kts 128°
2026-05-05 16:51 37.91206 12.48688 32 ft 35 kts 128°
2026-05-05 16:51 37.91037 12.48963 30 ft 44 kts 128°
2026-05-05 16:51 37.90861 12.49252 34 ft 31 kts 128°
2026-05-05 16:52 37.90714 12.49418 37 ft 27 kts 152°
2026-05-05 16:52 37.90563 12.49499 38 ft 22 kts 157°
2026-05-05 16:52 37.90431 12.49607 36 ft 25 kts 127°
2026-05-05 16:52 37.90344 12.49739 35 ft 14 kts 160°
2026-05-05 16:53 37.90271 12.49728 32 ft 5 kts 161°
2026-05-05 16:53 37.90256 12.49725 32 ft 1 kts 238°
2026-05-05 16:53 37.90249 12.49692 32 ft 4 kts 257°
2026-05-05 16:53 37.90245 12.49665 32 ft 3 kts 261°
2026-05-05 16:54 37.90245 12.49661 32 ft 0 kts 261°